NOAA 16 DEB, 42405

Orbit data source: Space-Track

NOAA 16 DEB, 42405 is space debris in SSO originally from a launch on Thu, 21 Sep 2000 UTC launched from the Air Force Western Test Range (AFWTR). Debris objects in space refer to the collection of defunct objects orbiting the Earth. Examples of debris include non-operational satellites, rocket bodies, and fragments generated from explosions, collisions, or faulty payload assembly.

Loading next visibility...
Identifier
42405, 2000-055SZ
Orbit
SSO
Country
Flag of USUS
Related business
Manufacturer
Unknown
Mission
Spacecraft
Bus & Motor
Unknown
Mass
Unknown
Launch date (UTC)
2000-09-21 (26 years ago)
Launch vehicle
Unknown
Launch site
Air Force Western Test Range (AFWTR)
Object type
Payload
Rocket body
Debris
Shape & HBR
Unknown shape, 0.1 m
Radar Cross Section
Medium (>0.1 m² and <1 m²)

Expand to show TLE details & history
Last TLE update: 1 day ago

TLE from 1 day ago
0 NOAA 16 DEB
1 42405U 00055SZ  26177.48906384  .00007533  00000-0  17772-2 0  9994
2 42405  99.0248  69.3900 0026123  85.5738 274.8440 14.54331795535189
Epoch: 2026-06-26T11:44Z
TLE epoch observation values (Epoch: 2026-06-26T11:44:15.115Z)
Latitude
-0.00005°
Longitude
-21.28981°
Altitude
712.97 km
Speed
7.5 km/s
True Right ascension
04h 37m 33s
True Declination
0° 00' 00"
Sunlit
Object was in daylight at epoch
Visualization orbit readout
Latitude
Unknown
Longitude
Unknown
Altitude
Unknown
Speed
Unknown
Apparent Right ascension
Unknown
Apparent Declination
Unknown
Sunlit
N/A
Visualization observer readout
Local Sidereal Time
03:10:40
Azimuth
Unknown
Elevation
Unknown
Doppler factor
Unknown
Orbital elements
Apogee altitude
727.177 km
Perigee altitude
690.151 km
Semi-major axis
7,086.801 km
Eccentricity
0.00261
Inclination
99.0248°
RAAN
69.39°
Arg. of periapsis
85.5738°
True anomaly
274.54564°
Mean anomaly
274.844°
Eccentric anomaly
274.69483°
Mean motion
3.63804 °/min
Orbital period
98.95 mins
BSTAR
0.0017772
Loading maneuver chart data...
Computing Atmospheric mass density...
Loading historical data...
Loading historical data...
Loading historical data...
Loading historical data...
Loading historical data...
Loading historical data...
Loading historical data...

Documentation

Showing up to 5 results
|